Cold Bay, AK

12:12 AM AKST on February 07, 2016 (GMT -0900)
Cold Bay

Weather History for PACD - January, 2013

Change the Weather History Date:

Sunday, January 27, 2013

  Actual Average Record
Temperature  
Mean Temperature 22 °F 28 °F  
Max Temperature 27 °F 33 °F 48 °F (1963)
Min Temperature 17 °F 23 °F -5 °F (1989)
Degree Days  
Heating Degree Days 43 37  
Month to date heating degree days 865 991  
Since 1 July heating degree days 5294 5068  
Cooling Degree Days 0    
Month to date cooling degree days 0  
Year to date cooling degree days 0  
Moisture  
Dew Point 16 °F    
Average Humidity 0    
Maximum Humidity 0    
Minimum Humidity 0    
Precipitation  
Precipitation 0.35 in 0.10 in 0.54 in (1996)
Month to date precipitation 2.90 2.76  
Year to date precipitation 2.90 2.76  
Snow  
Snow 5.00 in 0.50 in 4.90 in (2013)
Month to date snowfall 8.4 12.4  
Since 1 July snowfall 30.8 37.6  
Snow Depth 5.00 in    
Sea Level Pressure  
Sea Level Pressure 29.83 in    
Wind  
Wind Speed 18 mph (NNE)    
Max Wind Speed 28 mph    
Max Gust Speed 35 mph    
Visibility 6 miles    
Events Snow    
T = Trace of Precipitation, MM = Missing Value Source: NWS Daily Summary

Daily Weather History Graph

Daily Weather History Graph

Search for Another Location

Airport or City:

Trip Planner

Search our weather history database for the weather conditions in past years. The results will help you decide how hot, cold, wet, or windy it might be!

Date:

Astronomy

Jan. 27, 2013 Rise Set
Actual Time 9:50 AM AKST 6:17 PM AKST
Civil Twilight 9:09 AM AKST 6:58 PM AKST
Nautical Twilight 8:24 AM AKST 7:43 PM AKST
Astronomical Twilight 7:41 AM AKST 8:26 PM AKST
Moon 7:45 PM AKST (1/27) 9:32 AM AKST (1/27)
Length of Visible Light 9h 49m
Length of Day
8h 27m
Full, 100% of the Moon is Illuminated
Jan 27
Full
Feb 3
Last Quarter
Feb 9
New
Feb 17
First Quarter
Feb 25
Full

Hourly Weather History & Observations

Time (AKST) Temp. Windchill Dew Point Humidity Pressure Visibility Wind Dir Wind Speed Gust Speed Precip Events Conditions
12:53 AM 24.1 °F 8.7 °F 17.1 °F 75% 30.05 in 10.0 mi North 23.0 mph 28.8 mph N/A   Overcast
1:53 AM 25.0 °F 10.9 °F 18.0 °F 75% 30.05 in 10.0 mi NNE 19.6 mph 28.8 mph N/A   Overcast
3:53 AM 25.0 °F 9.5 °F 18.0 °F 75% 30.02 in 10.0 mi NNE 24.2 mph 29.9 mph N/A   Overcast
4:53 AM 25.0 °F 10.6 °F 18.0 °F 75% 30.02 in 10.0 mi NNE 20.7 mph 27.6 mph N/A   Overcast
5:53 AM 26.1 °F 11.0 °F 18.0 °F 71% 30.00 in 10.0 mi NNE 24.2 mph 33.4 mph N/A   Overcast
6:53 AM 26.1 °F 12.3 °F 18.0 °F 71% 30.01 in 10.0 mi NNE 19.6 mph 28.8 mph N/A   Overcast
7:53 AM 26.1 °F 13.6 °F 19.0 °F 75% 29.99 in 10.0 mi NNE 16.1 mph - N/A   Overcast
8:53 AM 24.1 °F 10.6 °F 17.1 °F 75% 29.98 in 10.0 mi North 17.3 mph - N/A   Overcast
9:53 AM 24.1 °F 12.0 °F 17.1 °F 75% 29.97 in 10.0 mi NNE 13.8 mph - N/A   Overcast
10:53 AM 25.0 °F 14.8 °F 16.0 °F 69% 29.96 in 10.0 mi NNE 10.4 mph - N/A   Overcast
11:53 AM 25.0 °F 12.6 °F 16.0 °F 69% 29.96 in 10.0 mi NNE 15.0 mph - N/A   Overcast
12:53 PM 25.0 °F 10.9 °F 14.0 °F 63% 29.94 in 10.0 mi NNE 19.6 mph - N/A   Overcast
1:53 PM 25.0 °F 12.2 °F 14.0 °F 63% 29.91 in 10.0 mi NNE 16.1 mph - N/A   Overcast
2:53 PM 25.0 °F 11.3 °F 15.1 °F 66% 29.88 in 10.0 mi NNE 18.4 mph - N/A   Overcast
3:53 PM 24.1 °F 13.1 °F 10.9 °F 57% 29.86 in 10.0 mi NNE 11.5 mph - N/A   Overcast
4:35 PM 24.8 °F 12.4 °F 12.2 °F 59% 29.83 in 8.0 mi NNE 15.0 mph - 0.00 in Snow Light Snow
4:53 PM 24.1 °F 11.0 °F 14.0 °F 65% 29.83 in 2.5 mi North 16.1 mph - 0.00 in Snow Light Snow
5:23 PM 23.0 °F 11.7 °F 17.6 °F 80% 29.81 in 1.8 mi North 11.5 mph - 0.00 in Snow Light Snow
5:53 PM 23.0 °F 12.4 °F 18.0 °F 81% 29.80 in 1.2 mi NNE 10.4 mph - 0.01 in Snow Light Snow
6:34 PM 21.2 °F 8.9 °F 17.6 °F 86% 29.78 in 1.2 mi NNE 12.7 mph - 0.03 in Snow Light Snow
6:53 PM 21.9 °F 8.7 °F 19.0 °F 89% 29.77 in 1.2 mi NNE 15.0 mph - 0.05 in Snow Light Snow
7:07 PM 19.4 °F 4.1 °F 15.8 °F 86% 29.76 in 1.0 mi NNE 18.4 mph - 0.01 in Snow Light Snow
7:53 PM 19.0 °F 2.4 °F 16.0 °F 88% 29.73 in 1.2 mi NNE 21.9 mph - 0.05 in Snow Light Snow
8:42 PM 17.6 °F -0.3 °F 15.8 °F 93% 29.69 in 1.5 mi NNE 24.2 mph 32.2 mph 0.03 in Snow Light Snow
8:53 PM 18.0 °F 0.2 °F 14.0 °F 84% 29.70 in 1.8 mi NNE 24.2 mph 31.1 mph 0.03 in Snow Light Snow
9:00 PM 19.4 °F 2.1 °F 15.8 °F 86% 29.68 in 2.5 mi NNE 24.2 mph - 0.00 in Snow Light Snow
9:12 PM 19.4 °F 2.1 °F 15.8 °F 86% 29.67 in 1.5 mi NNE 24.2 mph 31.1 mph 0.00 in Snow Light Snow
9:29 PM 17.6 °F -0.3 °F 14.0 °F 86% 29.66 in 1.2 mi NNE 24.2 mph - 0.01 in Snow Light Snow
9:53 PM 19.0 °F 2.4 °F 16.0 °F 88% 29.66 in 1.2 mi NNE 21.9 mph - 0.03 in Snow Light Snow
10:08 PM 17.6 °F -1.3 °F 14.0 °F 86% 29.64 in 1.0 mi NNE 27.6 mph 33.4 mph 0.00 in Snow Light Snow
10:26 PM 17.6 °F 0.1 °F 15.8 °F 93% 29.65 in 0.8 mi NNE 23.0 mph - 0.01 in Snow Light Snow
10:53 PM 19.9 °F 4.8 °F 17.1 °F 89% 29.65 in 0.8 mi NNE 18.4 mph - 0.07 in   Mist
11:38 PM 17.6 °F 0.5 °F 14.0 °F 86% 29.60 in 1.0 mi NNE 21.9 mph 29.9 mph 0.08 in Snow Light Snow
11:53 PM 18.0 °F 0.6 °F 14.0 °F 84% 29.60 in 1.2 mi NNE 23.0 mph 29.9 mph 0.10 in Snow Light Snow